Location: Bun Machan
(52.1403°N, 7.3744°W)
Time: 03:55:21
(UTC+00:00)

X-37B - Pass Details

Date: 22 June 2021
Orbit: 383 x 392 km, 45.0° (Epoch: 01 July)

Event Time Altitude Azimuth Distance (km) Brightness Sun altitude
Exits shadow 03:15:24 - 234° (SW) 1,569 3.0 -6.4°
Reaches altitude 10° 03:16:58 10° 208° (SSW) 1,404 2.7 -6.2°
Maximum altitude 03:17:02 10° 206° (SSW) 1,403 2.8 -6.2°
Drops below altitude 10° 03:17:07 10° 205° (SSW) 1,404 2.8 -6.2°
Sets 03:21:11 0° 153° (SSE) 2,255 4.2 -5.8°
